Location: Fort Collins
(40.5850°N, 105.0840°W)
Time: 02:27:10
(UTC-06:00)

Daily predictions for brighter satellites

Satellite Brightness Start Highest point End
(mag) Time Altitude Azimuth Time Altitude Azimuth Time Altitude Azimuth
CZ-4C R/B 4.3 03:03:04 22° NNE 03:03:04 22° NNE 03:05:22 10° NNE
CZ-2D R/B 4.4 03:04:54 10° NNE 03:06:24 19° NNE 03:06:24 19° NNE
Cosmos 2297 Rocket 4.4 03:16:13 18° N 03:16:13 18° N 03:17:44 10° N
SL-16 R/B 4.4 03:35:39 18° NNW 03:35:39 18° NNW 03:37:08 10° NNW
ADEOS II 3.6 03:52:35 10° NNE 03:57:15 31° E 03:58:42 27° SE
DELTA 2 R/B (1) 4.3 04:01:57 49° E 04:01:57 49° E 04:06:00 10° E
ASTEX 1 4.2 04:04:40 10° NNE 04:09:26 46° E 04:09:52 45° ESE
Resurs 1-4 Rocket 3.9 04:09:22 10° N 04:11:27 21° NNW 04:11:27 21° NNW
Cosmos 1943 3.4 04:09:25 10° NNW 04:15:06 67° ENE 04:20:44 10° SSE
Cosmos 1607 4.0 04:15:19 65° SSE 04:15:59 70° ESE 04:22:19 10° NE
Atlas Centaur 2 3.5 04:22:30 28° SSE 04:22:30 28° SSE 04:26:13 10° ESE
Cosmos 2263 Rocket 2.3 04:21:57 65° SSE 04:22:35 71° ESE 04:28:15 10° NNE
CZ-4B R/B 4.4 04:22:17 10° NNE 04:25:57 32° E 04:26:42 29° ESE
Cosmos 2279 Rocket 4.5 04:30:37 43° NW 04:30:37 43° NW 04:35:31 10° N
Cosmos 1975 Rocket 3.4 04:30:32 65° ENE 04:30:32 65° ENE 04:34:38 10° NNE
Cosmos 1741 Rocket 4.0 04:31:24 71° SSE 04:31:54 79° ESE 04:37:10 10° NNE
SL-24 DEB 4.2 04:31:44 10° N 04:36:33 88° E 04:36:41 85° SSE
Cosmos 1140 Rocket 4.0 04:38:13 43° NW 04:38:13 43° NW 04:42:25 10° N
Cosmos 1437 Rocket 3.4 04:36:06 10° N 04:39:09 50° NNE 04:39:09 50° NNE
MOS 1-B 4.2 04:42:12 10° NNE 04:48:01 88° WNW 04:50:50 33° SSW
CZ-2D R/B 4.1 04:46:24 10° NNW 04:47:44 14° NW 04:47:44 14° NW
CZ-4C R/B 4.4 04:48:15 12° NW 04:49:52 13° NNW 04:52:43 10° N
Cosmos 1850 Rocket 4.0 04:51:51 56° WSW 04:52:43 66° WNW 04:58:02 10° NNE
Intercosmos 25 Rocket 3.6 04:56:01 14° S 04:59:44 63° E 05:03:01 10° NNE
CZ-3 R/B 3.8 04:49:53 23° SW 05:01:25 38° S 05:08:35 10° ESE
CZ-4B R/B 3.7 04:57:10 10° NNE 05:02:23 57° E 05:07:37 10° S
USA 238 DEB 4.3 05:01:21 11° SSW 05:07:51 57° ESE 05:14:39 10° NE
USA 238 4.3 05:01:23 11° SSW 05:07:57 56° ESE 05:14:46 10° NE
Cosmos 332 Rocket 3.6 05:07:30 10° NNW 05:12:20 85° WSW 05:17:06 10° SSE
Cosmos 371 Rocket 3.2 05:12:08 10° NNW 05:17:01 89° NE 05:21:52 10° SSE
Abrixas rocket 3.6 05:17:23 26° NNW 05:17:46 27° NNW 05:20:37 10° NE
Cosmos 1570 Rocket 4.2 05:15:17 10° NNW 05:20:20 47° WSW 05:25:23 10° S
Okean O Rocket 1.5 05:17:24 10° N 05:21:44 71° WNW 05:25:09 16° SSW
CZ-2C R/B 4.3 05:21:24 10° SSE 05:26:01 64° ENE 05:30:43 10° N
Cosmos 2208 Rocket 4.2 05:22:50 10° NNW 05:27:50 44° WSW 05:32:45 10° S
Nadezhda 2 Rocket 4.5 05:24:01 10° NNW 05:30:16 61° W 05:36:24 10° S
Cosmos 1975 3.5 05:28:59 10° NNW 05:32:41 34° W 05:36:04 12° SSW
S3M 4.4 05:26:58 10° S 05:33:08 68° E 05:39:27 10° NNE
COSMOS 2406 4.2 05:28:14 10° NNW 05:33:51 49° ENE 05:39:24 10° SE
EO 1 Del DPAF 4.5 05:32:04 10° SE 05:35:42 44° ENE 05:39:21 10° N
ADEOS II 2.8 05:32:18 10° N 05:36:54 32° WNW 05:39:38 20° WSW
IRS-1C Rocket 4.0 05:32:05 10° N 05:37:22 76° WNW 05:42:38 10° SSW
Meteor 2-11 Rocket 4.3 05:34:11 10° SSW 05:40:13 73° W 05:46:18 10° N
Tiangong 1 1.1 05:40:26 36° WSW 05:40:58 43° SSW 05:43:31 10° SE
CZ-4B DEB 4.2 05:35:43 10° N 05:41:05 59° WNW 05:46:25 10° SSW
Landsat 4 3.6 05:39:06 10° S 05:42:53 68° WSW 05:46:43 10° NNW
Meteor 1-31 Rocket 2.6 05:39:34 10° N 05:43:28 82° WNW 05:47:18 10° SSW
Cosmos 1666 2.7 05:40:27 10° NNW 05:44:09 55° W 05:47:50 10° S
CZ-3A R/B 4.4 05:41:35 10° SSW 05:44:48 19° SSE 05:52:17 10° ESE
COSMO-SKYMED 1 4.2 05:40:51 10° SE 05:44:50 38° ENE 05:48:51 10° N
ATLAS 3B R/B 2.8 05:39:03 10° SW 05:46:28 74° NW 05:53:37 10° NNE
DELTA 2 R/B (1) 3.6 05:42:44 19° W 05:46:48 67° SSW 05:52:19 10° ESE
Cosmos 1814 Rocket 3.9 05:42:33 10° NNW 05:47:43 81° WSW 05:52:54 10° SSE
Cosmos 1743 3.4 05:51:11 10° NNW 05:54:39 31° W 05:58:07 10° SSW
ATLAS CENTAUR R/B 3.3 05:51:36 10° S 05:54:58 28° ESE 05:58:13 10° NE
Cosmos 1844 Rocket 2.7 05:52:13 10° SSW 05:57:53 89° WNW 06:03:35 10° NNE
Meteor 1-23 Rocket 4.3 05:54:25 10° S 05:59:58 85° E 06:05:34 10° N
CZ-4B R/B 4.4 05:57:58 10° NNW 06:00:50 19° WNW 06:02:51 13° WSW
Cosmos 304 Rocket 3.9 05:56:59 10° NNW 06:01:50 81° ENE 06:06:39 10° SSE
Cosmos 2263 Rocket 3.7 06:03:41 12° W 06:07:05 19° NW 06:11:03 10° N
Atlas Centaur 2 3.3 06:05:09 10° WSW 06:09:54 25° SSW 06:13:51 10° SE
Meteor 1-28 Rocket 3.2 06:09:44 10° S 06:13:24 61° W 06:17:08 10° NNW
Cosmos 1455 Rocket 4.3 06:11:10 10° NW 06:14:16 19° W 06:17:21 10° SW
Meteor 1-4 Rocket 3.7 06:11:47 10° NW 06:14:26 20° W 06:17:03 10° SW
USA 215 3.7 06:10:16 10° ESE 06:16:42 66° NE 06:23:10 10° NW
Cosmos 724 4.4 06:12:34 10° SW 06:18:39 67° WNW 06:24:38 10° NNE
Cosmos 841 Rocket 3.5 06:19:10 10° NNW 06:24:16 58° WSW 06:29:21 10° S
Okean-O 2.7 06:20:53 10° N 06:25:16 61° WNW 06:29:36 10° SSW
